STARLINK-5120, 53982

Orbit data source: Space-Track

STARLINK-5120, 53982 is a payload satellite owned by SpaceX/Seattle (US) in LEO that was launched on Wed, 05 Oct 2022 UTC via an FALCON 9 launch vehicle from the Air Force Western Test Range (AFWTR). Payload-class satellites include a variety of spacecraft equipped with specific instruments for various scientific and technological missions. These include communications satellites like Starlink; space stations such as the ISS; scientific satellites like the Hubble; Earth observation satellites from companies like Planet Labs, Umbra, and HawkEye 360; GPS; miniature CubeSats for education and research; and military/defense satellites.

Loading next visibility...
Identifier
53982, 2022-125U
Orbit
LEO
Country
Flag of USUS
Related business
Manufacturer
SpaceX/Seattle
Mission
Operational Commercial Communications
Bus & Motor
STARLINK, Unknown motor
Mass
305 kg wet, ~290 kg dry
Launch date (UTC)
2022-10-05 (4 years ago)
Launch vehicle
FALCON 9
Launch site
Air Force Western Test Range (AFWTR)
Object type
Payload
Rocket body
Debris
Shape & HBR
Box + 1 Pan, 10.1 m
Radar Cross Section
13.562 m², Large (>1 m²)

Expand to show TLE details & history
Last TLE update: 3 days ago

TLE from 3 days ago
0 STARLINK-5120
1 53982U 22125U   26170.57765984  .00000575  00000-0  54229-4 0  9999
2 53982  53.1618 116.6559 0001445  88.6754 271.4403 15.08839508204833
Epoch: 2026-06-19T13:51Z
TLE epoch observation values (Epoch: 2026-06-19T13:51:49.810Z)
Latitude
-0.00001°
Longitude
0.89372°
Altitude
540.611 km
Speed
7.593 km/s
True Right ascension
07h 46m 37s
True Declination
0° 00' 00"
Sunlit
Object was in daylight at epoch
Visualization orbit readout
Latitude
Unknown
Longitude
Unknown
Altitude
Unknown
Speed
Unknown
Apparent Right ascension
Unknown
Apparent Declination
Unknown
Sunlit
N/A
Visualization observer readout
Local Sidereal Time
21:33:36
Azimuth
Unknown
Elevation
Unknown
Doppler factor
Unknown
Orbital elements
Apogee altitude
540.998 km
Perigee altitude
538.999 km
Semi-major axis
6,918.136 km
Eccentricity
0.00014
Inclination
53.1618°
RAAN
116.6559°
Arg. of periapsis
88.6754°
True anomaly
271.42375°
Mean anomaly
271.4403°
Eccentric anomaly
271.43202°
Mean motion
3.77189 °/min
Orbital period
95.44 mins
BSTAR
0.000054229
Loading maneuver chart data...
Computing Atmospheric mass density...
Loading historical data...
Loading historical data...
Loading historical data...
Loading historical data...
Loading historical data...
Loading historical data...
Loading historical data...

Documentation

Showing up to 5 results
|